Regional Weather Roundup
Issued by NWS Newport/Morehead, NC

Current Version | Previous Version | Text Only | Print | Product List | Glossary Off
Versions: 1 2 3 4 5 6 7 8 9 10 11 12 13 14 15 16 17 18 19 20 21 22 23 24 25 26 27 28 29 30 31 32 33 34 35 36 37 38 39 40 41 42 43 44 45 46 47 48 49 50

000
ASUS42 KMHX 151213
RWRMHX
WEATHER ROUNDUP FOR EASTERN NORTH CAROLINA
NATIONAL WEATHER SERVICE NEWPORT/MOREHEAD CITY NC
700 AM EST MON JAN 15 2018

NOTE: "FAIR" INDICATES FEW OR NO CLOUDS BELOW 12,000 FEET
WITH NO SIGNIFICANT WEATHER AND/OR OBSTRUCTIONS TO VISIBILITY

NCZ015>017-031-032-045>047-102-103-151300-
NORTH COAST

CITY           SKY/WX    TMP DP  RH WIND       PRES   REMARKS
EDENTON        CLOUDY    30  22  73 N7        30.48R
ELIZABETH CITY CLOUDY    30  27  88 N16       30.45F WCI  19
KITTY HAWK     CLOUDY    38  36  94 N16G24    30.38F
MANTEO         CLOUDY    37  34  89 N15G22    30.41F

$$

NCZ045>047-081-094-103-104-151300-
CENTRAL COAST

CITY           SKY/WX    TMP DP  RH WIND       PRES   REMARKS
FRISCO         NOT AVBL

$$

NCZ095-097-098-100-101-151300-
SOUTHERN COAST

CITY           SKY/WX    TMP DP  RH WIND       PRES   REMARKS
BEAUFORT       CLOUDY    30  27  88 N13       30.44R WCI  20
CEDAR ISLAND   NOT AVBL
JACKSONVILLE   CLOUDY    28  19  69 NW12      30.48R WCI  18
PINEY ISLAND   NOT AVBL
WILMINGTON     FAIR      27  18  69 N8        30.48R


$$

NCZ011>013-027>030-043-044-078>080-089-090>093-098-151300-
COASTAL PLAIN

CITY           SKY/WX    TMP DP  RH WIND       PRES   REMARKS
AHOSKIE        CLOUDY    23  12  63 N5        30.52R
CLINTON        FAIR      23  12  62 N7        30.51R
ELIZABETHTOWN  NOT AVBL
GOLDSBORO      CLOUDY    24  12  59 N8        30.50R
GREENVILLE     MOCLDY    27  16  63 N7        30.51R
HAVELOCK       NOT AVBL
KENANSVILLE    FAIR      25  14  63 N6        30.49S
KINSTON        CLOUDY    25  16  68 N10       30.51R WCI  15
NEW BERN       CLOUDY    27  19  72 N9        30.48R
RICHLANDS      MOCLDY    26  17  68 VRB5      30.49R
ROCKY MOUNT    FAIR      22  13  68 N8        30.52S
WASHINGTON     CLOUDY    26  17  67 NW8       30.49S
WHITEVILLE     FAIR      25  11  57 N3        30.48S

$$

AMZ130-135-150-152-154-156-158-170-250-252-270-ANZ085-086-088-633-658-670-151300-
MARINE OBSERVATIONS

STATION/POSITION TIME  TEMP    WIND        PRES    WAVE   SWELL
                       AIR SEA DIR/SP/G            HT/PER HT/PER
                 (UTC) (F)     (DEG/KT/KT) (MB)    (FT/S) (FT/S)
CHESAPEAKE LIGHT NOT AVBL
64 E VA BEACH    1150   52 66   50/ 21/ 25 1028.2    7/ 7   3/ 9
DUCK             1136   37 40  360/ 26/ 29 1028.9
2 E DUCK         1200      42                N/A     7/ 7   2/11
OREGON INLET     1136   40 41  350/ 16/ 20 1028.6
13E OREGON INLT  1148      45                N/A     8/ 7   5/ 9
HATTERAS CG      1136   36 42  340/ 23/ 26 1027.8
DIAMOND BUOY     1150   47     350/ 25/ 29 1027.2    8/10   3/10
CAPE LOOKOUT     1200          340/  4/  5 1030.5
BEAUFORT LAB     1136   31 46  360/ 12/ 17 1030.2
30 SE NEW RVR IN 1108   37 60   20/ 16/ 21 1029.7
30 SE NEW RVR IN 1200      60                N/A     7/10   2/11
27 SE WRIGHTSVLE 1108   36 61  360/ 16/ 23 1030.2
5 SE WRIGHTSVLE  1108   30 47  350/ 12/ 16 1030.5
225 S CAPE HAT   1150   63 70   30/ 12/ 14 1022.6   11/ 9  10/ 9
41 SE CHARLESTON 1150   43     360/ 16/ 19 1030.0    5/10   3/10

$$




USA.gov is the U.S. government's official web portal to all federal, state and local government web resources and services.